Temperature
7 7 7 7 7 6 6 6 6 6 6 6 6 6 6 5 5 5 5 5 5 5 5 5 5 4 4 4 4 4 3 3 3 3 3 3 3 4 4 4 4 4 4
6 6 6 6 6 6 6 6 5 5 5 5 5 5 5 5 5 5 5 5 4 4 4 4 4 4 4 3 3 3 3 3 2 3 3 3 3 3 3 3 3 3 3
6 6 6 6 5 5 5 5 5 5 5 5 5 5 5 5 4 4 4 4 4 4 4 4 4 3 3 3 3 3 3 2 2 2 2 3 3 3 3 3 3 3 3
5 5 5 5 5 5 5 5 5 4 4 4 4 4 4 4 4 4 4 4 4 3 3 3 3 3 3 3 2 2 2 2 2 2 2 2 2 2 2 2 2 2 3
5 5 5 5 5 4 4 4 4 4 4 4 4 4 4 3 3 3 3 3 3 3 3 3 3 3 2 2 2 2 2 2 2 2 2 2 2 2 2 2 2 2 2
4 4 4 4 4 4 4 4 4 4 4 3 3 3 3 3 3 3 2 2 2 2 2 2 2 2 2 2 2 2 1 1 1 1 1 1 1 1 1 1 1 1 1
3 3 3 3 3 3 3 3 3 3 3 3 3 3 3 2 2 2 2 2 2 2 2 2 2 2 2 1 2 1 1 1 1 1 1 0 0 0 0 0 0 0 -0
3 3 3 3 3 3 3 3 3 3 3 2 2 2 2 2 2 2 1 1 1 1 1 1 1 1 1 1 1 1 1 1 0 0 0 -0 -0 -0 -0 -0 -1 -0 -0
2 2 2 2 2 2 2 2 2 2 2 2 2 1 1 1 1 1 1 1 1 1 1 1 0 0 0 0 0 0 0 0 -0 -0 -0 -1 -1 -1 -1 -1 -1 -1 -1
2 2 1 1 1 1 1 1 1 1 1 1 1 1 1 1 1 0 0 0 0 0 -0 -0 -0 -0 -0 -0 -0 -0 -0 -0 -1 -1 -1 -1 -1 -1 -1 -1 -1 -1 -2
1 1 1 1 1 1 1 1 0 0 0 0 0 0 0 0 0 -0 -0 -1 -1 -1 -1 -1 -1 -1 -1 -1 -1 -1 -1 -1 -1 -1 -1 -1 -1 -1 -1 -1 -1 -1 -2
0 0 0 0 -0 -0 0 0 -0 -0 -0 -0 -0 -0 -0 -0 -1 -1 -1 -1 -1 -1 -1 -1 -1 -1 -1 -1 -1 -2 -2 -2 -2 -2 -2 -1 -2 -2 -2 -2 -2 -2 -2
-0 -0 -0 -1 -1 -1 -1 -0 -1 -1 -1 -1 -1 -1 -1 -1 -1 -1 -2 -2 -2 -2 -2 -2 -2 -2 -2 -2 -2 -2 -2 -2 -2 -2 -2 -2 -2 -2 -2 -2 -2 -2 -2
-1 -1 -1 -1 -1 -1 -1 -1 -1 -1 -1 -2 -2 -2 -2 -2 -2 -2 -2 -2 -2 -2 -2 -2 -2 -2 -2 -2 -2 -2 -3 -3 -3 -3 -3 -2 -2 -2 -2 -2 -2 -2 -2
-1 -1 -1 -1 -1 -1 -1 -2 -2 -2 -2 -3 -3 -3 -3 -3 -3 -3 -2 -2 -2 -2 -2 -2 -2 -2 -3 -3 -3 -3 -3 -3 -3 -3 -3 -3 -3 -3 -2 -2 -2 -2 -2
-2 -2 -2 -2 -2 -2 -2 -2 -3 -3 -3 -3 -3 -3 -3 -3 -3 -3 -3 -3 -3 -3 -3 -3 -3 -3 -3 -3 -3 -3 -3 -3 -3 -3 -3 -3 -3 -3 -3 -3 -3 -3 -3
-2 -2 -2 -2 -3 -3 -3 -3 -3 -3 -3 -3 -3 -3 -3 -3 -3 -3 -3 -3 -3 -3 -3 -3 -3 -3 -4 -4 -4 -4 -4 -3 -3 -3 -3 -3 -3 -3 -3 -3 -3 -3 -3
-3 -3 -3 -3 -3 -3 -3 -3 -4 -4 -3 -3 -3 -4 -4 -4 -4 -4 -4 -4 -3 -3 -4 -4 -4 -4 -4 -4 -4 -4 -4 -4 -4 -4 -4 -4 -4 -4 -4 -4 -4 -4 -4
-3 -3 -3 -4 -4 -4 -4 -4 -4 -4 -4 -4 -4 -4 -4 -4 -4 -4 -4 -4 -4 -4 -4 -4 -4 -4 -4 -4 -4 -4 -4 -4 -4 -4 -4 -4 -4 -4 -4 -4 -4 -4 -4
-4 -4 -4 -4 -4 -4 -5 -5 -5 -5 -5 -5 -5 -5 -5 -4 -4 -4 -4 -4 -4 -4 -4 -5 -5 -5 -5 -4 -4 -4 -4 -4 -4 -4 -4 -4 -4 -4 -4 -4 -4 -4 -4
-5 -5 -5 -5 -5 -5 -5 -5 -5 -5 -5 -5 -5 -5 -5 -5 -5 -5 -5 -5 -5 -5 -5 -5 -5 -5 -5 -5 -5 -5 -4 -4 -4 -4 -4 -4 -4 -4 -5 -4 -4 -5 -5
-5 -5 -6 -6 -6 -6 -6 -6 -6 -6 -6 -6 -5 -5 -5 -5 -5 -5 -5 -5 -5 -5 -5 -5 -5 -5 -5 -5 -5 -5 -5 -5 -4 -4 -4 -4 -5 -5 -5 -5 -5 -5 -5
-6 -6 -6 -6 -6 -6 -6 -7 -7 -6 -6 -6 -6 -6 -6 -6 -6 -6 -5 -5 -5 -5 -5 -5 -5 -5 -5 -5 -5 -5 -5 -5 -5 -5 -5 -5 -5 -5 -5 -5 -5 -5 -5
-7 -7 -7 -7 -7 -7 -7 -7 -7 -7 -6 -6 -6 -6 -6 -6 -6 -6 -6 -6 -6 -6 -6 -6 -5 -5 -5 -5 -5 -5 -5 -5 -5 -5 -5 -5 -5 -5 -5 -5 -5 -5 -5
-7 -7 -7 -7 -7 -7 -7 -7 -7 -7 -6 -6 -7 -7 -7 -6 -6 -6 -6 -6 -6 -6 -6 -6 -5 -5 -5 -5 -5 -5 -5 -5 -5 -5 -5 -5 -5 -5 -5 -5 -5 -5 -5
-7 -7 -7 -7 -7 -7 -7 -7 -7 -7 -7 -7 -7 -7 -7 -7 -7 -7 -7 -6 -6 -6 -6 -6 -6 -5 -5 -5 -5 -5 -5 -5 -5 -5 -5 -5 -5 -5 -5 -5 -5 -5 -5
Wind_Speed
3 2 3 2 2 2 1 1 1 1 1 1 2 2 2 3 3 3 3 3 4 4 4 5 5 5 4 4 3 4 4 4 8 7 6 6 6 7 8 9 10 10 11
2 3 2 2 2 2 1 0 1 1 1 2 2 2 2 3 3 3 4 4 4 5 5 5 5 4 4 4 3 4 4 5 6 9 7 6 7 7 7 7 8 9 10
3 3 3 2 2 1 0 1 1 1 2 2 2 2 3 3 3 3 4 4 5 5 5 5 5 4 5 4 4 4 4 5 5 6 8 6 5 6 7 7 7 7 9
3 3 2 1 1 0 1 1 1 1 2 2 2 2 3 3 3 3 3 4 4 4 4 4 4 4 4 4 4 4 4 4 5 5 6 6 5 6 5 6 7 6 7
3 3 2 1 1 1 1 1 1 1 2 2 2 2 2 2 3 3 3 3 3 3 3 3 3 4 5 5 4 4 4 4 4 5 6 6 6 5 6 5 8 8 7
3 2 2 2 2 2 1 1 1 2 2 2 2 2 3 3 4 5 4 2 3 3 3 3 3 4 5 7 7 7 6 5 5 5 6 7 7 7 6 7 7 7 7
3 2 3 2 2 2 2 2 2 2 2 2 2 2 3 4 6 5 5 3 2 2 2 3 4 4 5 4 6 8 7 8 8 6 6 7 7 7 7 7 7 7 8
3 3 3 2 2 2 2 2 2 2 2 2 3 3 3 5 5 5 4 2 1 2 2 2 3 4 4 4 4 4 5 5 6 5 5 6 6 6 5 6 7 7 7
3 3 3 2 2 3 3 3 2 2 2 2 3 3 3 5 5 4 4 1 2 2 2 2 3 3 5 6 5 4 5 5 6 6 7 7 9 9 8 5 5 5 6
3 3 3 2 2 3 3 3 2 2 2 2 3 3 3 3 4 4 3 1 2 3 3 3 4 5 6 6 4 3 5 5 5 5 6 7 7 7 8 5 4 5 5
3 3 3 3 2 3 3 2 2 2 2 2 3 3 3 3 4 4 4 1 1 2 3 3 3 6 7 6 5 3 5 5 4 4 4 5 5 5 5 5 4 4 4
3 3 3 3 3 3 3 3 2 2 2 3 3 3 3 3 4 4 4 4 3 2 3 3 4 6 7 6 5 5 6 5 3 3 4 4 5 5 5 6 6 5 5
3 4 3 4 3 3 2 2 2 1 1 2 2 3 4 3 4 6 6 5 5 3 2 4 5 6 6 5 5 7 6 3 3 3 4 5 4 5 5 5 6 6 6
3 3 3 3 3 3 2 2 2 2 2 2 3 3 3 3 3 3 3 3 4 3 3 4 5 5 4 4 5 5 4 3 3 3 4 4 4 4 4 4 4 5 4
3 3 3 3 3 3 3 2 3 3 2 2 3 3 3 4 4 6 4 3 2 2 3 2 2 2 3 3 3 3 3 3 3 3 3 4 4 5 4 4 3 3 3
3 3 2 2 2 2 2 3 4 3 4 4 4 4 4 5 7 7 6 6 5 4 2 1 2 2 2 3 3 3 3 3 3 3 3 4 4 5 5 4 3 3 4
3 3 3 3 2 2 2 2 3 4 5 5 5 5 5 6 6 6 6 5 4 4 1 1 2 2 3 3 3 3 3 4 4 3 3 4 4 4 4 4 4 4 4
3 4 3 2 2 2 2 2 2 3 4 3 5 6 6 6 6 6 5 4 3 3 2 2 2 2 3 3 3 3 4 4 3 3 3 3 4 4 4 4 4 4 4
3 2 2 2 2 2 2 2 2 2 3 3 3 4 5 6 6 6 5 2 2 2 2 2 2 3 3 3 3 3 4 4 4 3 3 3 3 3 4 4 4 5 4
3 4 4 2 2 2 2 2 2 2 2 3 3 3 3 4 3 4 3 2 2 2 3 3 3 3 3 4 3 3 4 4 4 3 3 3 3 3 3 4 3 3 3
2 3 4 3 2 2 2 2 2 2 3 3 3 4 4 3 3 3 3 2 2 3 3 3 3 3 3 3 3 4 4 4 4 3 3 3 3 3 3 3 2 2 2
2 2 2 2 2 2 2 2 2 2 3 3 3 4 5 3 2 2 2 3 3 3 3 3 3 3 3 3 4 4 4 4 4 3 3 3 3 3 3 2 2 2 2
2 2 2 2 2 3 3 2 2 2 2 3 3 3 3 3 2 3 3 3 3 3 3 3 3 4 4 4 4 4 4 4 4 4 3 3 2 2 2 2 2 2 2
1 1 1 1 1 1 2 2 2 2 2 3 3 3 3 3 3 3 3 3 3 3 3 3 4 5 6 5 5 5 5 5 5 4 3 2 2 2 2 2 2 2 2
1 1 1 1 1 2 2 2 2 2 2 3 3 3 3 3 3 3 3 3 4 4 5 4 4 5 6 6 6 5 6 6 5 4 2 1 1 1 2 2 2 2 2
1 1 1 1 1 1 2 2 2 2 2 3 2 2 2 3 3 3 3 3 4 4 5 5 5 6 6 6 6 6 6 5 4 3 2 0 0 1 1 1 2 2 2
Wind_Direction
120 121 120 124 121 121 129 187 235 263 265 264 267 276 278 276 268 262 262 263 262 265 261 254 256 256 256 256 253 253 252 252 272 287 287 296 297 298 309 312 311 312 312
111 108 108 105 100 99 104 283 287 287 285 270 269 275 279 284 275 261 267 269 263 269 271 266 270 270 264 259 255 258 261 257 264 286 296 300 294 298 300 303 313 316 313
95 97 90 86 91 88 345 318 314 300 297 294 280 276 280 282 280 271 264 267 264 264 267 267 270 268 271 270 269 270 271 274 265 274 290 296 296 301 305 304 303 305 313
83 83 79 72 71 21 334 330 318 303 295 295 288 280 281 282 280 277 276 276 278 278 273 270 272 266 268 275 279 275 277 282 281 280 289 299 298 299 301 307 312 312 310
74 63 45 38 44 33 4 334 323 316 312 298 294 301 301 288 278 276 279 284 284 292 296 288 280 285 286 285 284 285 284 285 287 287 291 299 302 310 309 304 306 311 305
66 48 33 33 34 20 355 345 340 334 330 330 319 308 304 296 296 294 295 286 287 292 296 300 302 308 311 311 307 303 295 288 289 287 290 296 300 300 301 305 307 313 311
53 37 30 31 27 4 357 6 346 333 339 333 326 324 304 300 303 302 305 304 287 284 292 305 311 318 325 320 320 320 318 311 297 283 284 289 295 299 303 305 303 300 294
43 25 19 29 20 6 3 353 339 337 337 324 316 311 308 306 312 315 318 330 305 299 299 299 300 309 316 320 321 318 310 309 308 300 286 291 295 298 293 291 290 292 288
22 5 356 8 3 357 352 339 331 340 336 325 318 309 301 301 314 322 332 337 322 319 317 315 309 304 315 323 323 317 316 317 323 321 315 315 318 324 326 317 313 309 302
351 340 340 352 347 333 322 314 313 316 313 316 318 312 299 298 320 334 341 332 320 317 323 318 315 316 317 324 318 312 313 311 316 323 328 329 330 331 335 327 305 299 300
338 341 346 345 333 320 316 308 307 313 322 317 316 321 320 324 334 338 329 316 294 311 316 317 316 320 322 326 328 318 310 311 313 315 315 320 324 328 330 326 313 289 288
343 346 346 346 341 337 332 321 319 325 334 330 329 333 337 336 339 337 334 326 315 301 301 304 310 318 325 331 333 329 328 330 325 323 324 325 323 322 319 317 308 292 274
346 343 341 341 337 333 328 324 323 331 332 320 325 325 324 330 334 338 340 338 334 320 303 308 316 327 329 333 337 336 337 334 329 326 320 313 308 303 308 309 310 306 297
328 323 324 326 325 330 326 317 312 307 301 304 307 306 310 316 323 329 329 331 333 326 321 325 332 341 346 343 340 340 337 326 319 309 308 303 305 309 312 312 311 318 317
322 317 320 320 315 322 321 308 301 278 271 288 293 292 301 306 309 317 317 313 306 296 314 326 336 331 341 336 329 327 327 328 325 312 309 311 315 317 314 314 309 315 314
315 318 315 312 310 310 316 324 324 312 324 323 318 313 308 306 315 324 327 327 326 314 322 316 313 313 314 314 315 319 319 318 311 306 307 309 312 315 316 318 319 315 311
288 297 300 300 298 303 308 314 320 336 344 343 339 335 332 330 333 337 338 337 336 338 336 308 299 303 303 302 304 306 307 306 304 300 303 306 308 308 310 316 320 318 315
286 293 295 286 285 288 289 293 297 306 320 328 338 340 340 342 343 345 343 347 348 354 340 313 305 306 307 305 304 304 305 308 308 303 300 302 303 304 308 313 315 313 312
293 286 282 281 284 287 290 294 296 296 298 305 319 329 338 338 341 347 350 352 333 322 315 310 305 303 303 299 297 298 296 298 301 302 301 301 300 300 302 305 308 317 316
297 297 300 294 296 299 297 295 293 290 292 296 304 312 325 333 331 334 340 333 316 305 303 302 301 297 296 296 298 297 299 299 301 297 297 298 296 293 295 303 308 311 312
298 301 306 308 301 294 291 286 284 284 289 293 297 303 311 313 312 317 316 313 305 299 299 298 294 292 291 292 292 293 295 295 294 290 291 292 292 292 294 300 306 307 311
282 284 288 284 290 291 289 284 284 283 287 292 303 311 315 316 309 309 307 305 304 301 298 295 294 293 290 289 288 288 289 291 294 290 288 289 292 295 301 308 313 316 326
279 276 284 294 297 291 298 296 288 283 284 288 296 303 308 305 303 303 303 306 311 311 309 302 299 302 303 290 281 277 279 283 286 280 279 285 292 297 301 301 306 316 328
274 267 271 284 293 295 294 293 288 285 284 288 292 293 295 296 297 300 305 313 315 312 310 304 297 297 298 298 292 283 278 282 284 276 270 271 282 293 301 304 309 315 319
269 260 261 267 276 280 286 294 291 285 283 286 288 289 295 299 297 300 307 313 312 313 311 309 304 299 297 295 296 295 296 297 297 291 281 274 277 288 301 302 309 324 324
275 268 268 268 269 274 279 287 293 294 289 286 285 287 292 298 299 302 309 313 314 312 309 307 304 303 304 304 304 306 307 312 310 304 300 301 301 303 305 301 313 319 319
Height
1476 1478 1480 1482 1483 1484 1485 1486 1486 1487 1487 1486 1486 1486 1485 1485 1484 1484 1483 1483 1482 1482 1481 1480 1479 1479 1478 1477 1477 1476 1475 1473 1468 1464 1463 1461 1459 1457 1454 1452 1449 1445 1442
1475 1476 1478 1479 1480 1481 1482 1483 1483 1483 1483 1483 1482 1482 1481 1481 1480 1479 1479 1478 1478 1477 1476 1475 1475 1474 1473 1472 1472 1471 1469 1468 1465 1460 1458 1456 1454 1452 1449 1446 1444 1441 1438
1473 1474 1475 1477 1478 1479 1479 1480 1480 1480 1480 1479 1479 1478 1477 1477 1476 1475 1474 1474 1473 1472 1471 1470 1470 1469 1468 1467 1467 1465 1464 1463 1461 1457 1453 1452 1450 1448 1445 1442 1439 1436 1433
1471 1472 1473 1474 1475 1476 1477 1477 1477 1477 1476 1476 1475 1474 1473 1473 1472 1471 1470 1469 1468 1468 1467 1466 1465 1465 1463 1462 1461 1460 1459 1458 1456 1453 1450 1447 1445 1443 1441 1437 1433 1431 1428
1469 1470 1471 1472 1473 1473 1474 1474 1474 1473 1473 1472 1471 1470 1470 1469 1468 1467 1466 1465 1464 1463 1462 1462 1461 1460 1459 1459 1457 1456 1455 1453 1451 1449 1446 1443 1441 1439 1436 1433 1429 1426 1423
1468 1468 1469 1470 1470 1470 1470 1470 1470 1470 1469 1469 1468 1467 1466 1465 1464 1464 1463 1461 1460 1459 1458 1457 1457 1456 1455 1455 1454 1452 1451 1449 1447 1445 1443 1440 1437 1435 1432 1429 1426 1422 1418
1466 1466 1467 1467 1468 1468 1467 1467 1467 1466 1466 1465 1464 1463 1463 1462 1461 1460 1459 1458 1457 1455 1454 1454 1453 1452 1451 1450 1449 1448 1447 1446 1445 1443 1439 1437 1434 1432 1429 1425 1423 1419 1416
1464 1465 1465 1465 1465 1465 1464 1464 1464 1463 1462 1462 1461 1460 1459 1458 1457 1456 1455 1454 1453 1452 1451 1450 1449 1448 1447 1446 1445 1443 1442 1441 1440 1438 1436 1433 1431 1428 1426 1423 1419 1415 1412
1463 1463 1463 1463 1462 1462 1462 1461 1460 1460 1459 1459 1458 1457 1456 1454 1454 1453 1452 1451 1450 1449 1448 1447 1446 1445 1444 1444 1442 1440 1438 1437 1436 1434 1432 1430 1427 1425 1422 1419 1415 1412 1408
1461 1461 1461 1461 1460 1459 1459 1458 1458 1457 1456 1456 1455 1454 1453 1451 1451 1450 1450 1448 1447 1446 1445 1444 1443 1442 1441 1440 1439 1437 1434 1433 1432 1430 1428 1426 1423 1421 1418 1416 1412 1410 1406
1460 1459 1459 1459 1458 1457 1457 1456 1455 1454 1454 1453 1452 1451 1450 1449 1448 1447 1447 1446 1444 1443 1442 1441 1440 1439 1438 1437 1436 1434 1432 1431 1429 1426 1424 1422 1420 1417 1415 1412 1410 1408 1405
1458 1457 1457 1457 1456 1455 1454 1453 1453 1452 1451 1450 1449 1448 1447 1446 1446 1445 1444 1443 1442 1441 1439 1438 1437 1436 1435 1434 1433 1431 1430 1428 1426 1424 1421 1419 1416 1414 1412 1410 1408 1405 1403
1456 1455 1455 1454 1454 1453 1452 1451 1450 1449 1448 1447 1446 1445 1444 1443 1443 1442 1441 1440 1439 1438 1437 1435 1434 1433 1432 1431 1430 1428 1427 1425 1423 1421 1418 1416 1414 1412 1410 1408 1405 1403 1401
1453 1453 1452 1452 1451 1450 1450 1449 1448 1447 1445 1444 1443 1442 1441 1440 1439 1438 1438 1437 1436 1435 1434 1432 1431 1430 1429 1428 1427 1426 1424 1422 1420 1418 1416 1414 1412 1410 1408 1406 1403 1401 1398
1451 1450 1450 1449 1448 1447 1446 1446 1445 1444 1443 1442 1442 1441 1439 1437 1437 1436 1435 1434 1433 1432 1431 1429 1428 1427 1426 1425 1424 1423 1421 1420 1418 1416 1414 1411 1409 1407 1405 1403 1401 1399 1397
1448 1447 1446 1445 1445 1444 1443 1442 1442 1442 1441 1440 1439 1439 1437 1436 1435 1433 1432 1431 1430 1429 1428 1426 1425 1424 1423 1422 1421 1419 1418 1417 1415 1413 1411 1409 1407 1405 1403 1401 1399 1397 1395
1445 1444 1443 1442 1441 1440 1439 1439 1438 1438 1438 1437 1436 1435 1435 1433 1432 1431 1429 1428 1427 1426 1425 1423 1423 1422 1421 1419 1418 1417 1415 1414 1412 1411 1409 1407 1405 1403 1401 1399 1397 1395 1393
1442 1441 1440 1439 1438 1437 1437 1436 1435 1434 1433 1433 1433 1433 1432 1431 1430 1428 1427 1426 1424 1423 1422 1421 1420 1419 1418 1417 1416 1414 1413 1411 1410 1408 1406 1404 1403 1401 1399 1397 1396 1394 1392
1439 1438 1438 1437 1436 1435 1434 1433 1432 1431 1431 1430 1430 1429 1429 1428 1427 1426 1424 1423 1422 1421 1420 1419 1418 1417 1416 1414 1413 1412 1410 1409 1407 1406 1404 1402 1400 1399 1397 1396 1394 1393 1391
1436 1436 1435 1434 1433 1432 1431 1430 1429 1429 1428 1427 1427 1426 1426 1425 1424 1423 1422 1421 1420 1419 1418 1416 1415 1414 1413 1412 1411 1409 1408 1406 1405 1403 1402 1400 1399 1397 1395 1394 1393 1391 1390
1433 1433 1432 1431 1430 1429 1429 1428 1427 1426 1426 1425 1425 1424 1424 1423 1422 1420 1419 1418 1417 1416 1415 1414 1413 1412 1410 1409 1408 1407 1405 1404 1402 1401 1400 1398 1397 1395 1394 1393 1392 1390 1389
1431 1430 1429 1429 1428 1427 1426 1425 1425 1424 1423 1423 1422 1422 1421 1420 1419 1418 1417 1416 1415 1414 1413 1412 1410 1409 1408 1407 1406 1404 1403 1401 1400 1399 1397 1396 1395 1394 1393 1391 1390 1389 1388
1428 1428 1427 1426 1425 1424 1424 1423 1423 1422 1421 1421 1420 1419 1419 1418 1417 1416 1415 1414 1413 1412 1411 1409 1408 1407 1406 1405 1403 1402 1401 1399 1398 1397 1396 1395 1393 1392 1391 1390 1389 1389 1388
1426 1425 1424 1424 1423 1422 1422 1421 1421 1420 1419 1419 1418 1417 1416 1416 1415 1414 1413 1412 1410 1409 1408 1407 1406 1404 1403 1402 1401 1400 1399 1397 1396 1395 1394 1393 1392 1391 1390 1389 1389 1388 1387
1424 1423 1422 1422 1421 1420 1420 1419 1419 1418 1417 1417 1416 1415 1414 1413 1412 1411 1410 1409 1408 1407 1406 1405 1404 1402 1401 1400 1399 1397 1397 1395 1395 1394 1393 1392 1391 1390 1390 1389 1388 1388 1387
1422 1421 1420 1420 1419 1419 1418 1417 1417 1416 1415 1415 1414 1413 1412 1411 1410 1409 1408 1407 1406 1405 1404 1403 1401 1400 1399 1397 1396 1396 1395 1394 1393 1392 1392 1391 1391 1390 1389 1389 1388 1387 1387